Home > Weather > Bridgeport > Past weeks

Flag for USA Past Weather in Bridgeport, Connecticut, USA — Yesterday and Last 2 Weeks

Now
73 °F

Clear.


Feels Like: 71 °F
Forecast: 70 / 84 °F
Wind: No wind

Location: Sikorsky Memorial Airport

Current Time: Jul 30, 2016 at 3:26:58 AM

Latest Report: Jul 30, 2016 at 2:52 AM


Visibility: 9 mi

Pressure: 29.93 "Hg

Humidity: 90%

Dew Point: 70 °F

Location of BridgeportLocation

Past Weather in Bridgeport — Graph

°F

Bridgeport Temperature Yesterday

Maximum temperature yesterday: 81 °F (at 3:52 PM)
Minimum temperature yesterday: 73 °F (at 6:52 AM)
Average temperature yesterday: 77 °F

High & Low Weather Summary for the Past Weeks

 TemperatureHumidityPressure
High96 °F (Jul 23, 2:52 PM)94% (Jul 15, 4:01 AM)30.24 "Hg (Jul 15, 4:01 AM)
Low64 °F (Jul 20, 4:52 AM)25% (Jul 23, 4:52 PM)29.76 "Hg (Jul 23, 5:52 PM)
Average80 °F64%29.95 "Hg
* Reported Jul 15 1:52 AM — Jul 30 1:52 AM, Bridgeport, Weather by CustomWeather, © 2016

Note: Actual official high and low records may vary slightly from our data, if they occured in-between our weather recording intervals... More about our weather records

Advertising

Bridgeport Weather History for the Previous 24 Hours

Scroll right to see more
 ConditionsComfort  
Time TempWeatherWind HumidityBarometerVisibility
1:52 AM
Sat, Jul 30
75 °FClear.3 mph85%29.93 "Hg9 mi
12:52 AM74 °FClear.No wind88%29.93 "Hg10 mi
11:52 PM
Fri, Jul 29
75 °FClear.No wind85%29.93 "Hg10 mi
10:52 PM76 °FClear.3 mph80%29.91 "Hg10 mi
9:52 PM77 °FClear.No wind77%29.90 "Hg10 mi
8:52 PM78 °FPartly sunny.3 mph71%29.88 "Hg10 mi
7:52 PM79 °FLight rain. Cloudy.5 mph67%29.88 "Hg10 mi
6:52 PM80 °FScattered clouds.7 mph67%29.85 "Hg10 mi
5:52 PM80 °FSunny.8 mph64%29.83 "Hg10 mi
4:52 PM80 °FSunny.9 mph64%29.82 "Hg10 mi
3:52 PM81 °FSunny.7 mph62%29.83 "Hg10 mi
2:52 PM80 °FPassing clouds.9 mph67%29.83 "Hg10 mi
1:52 PM79 °FBroken clouds.10 mph69%29.83 "Hg10 mi
1:01 PM78 °FMostly cloudy.8 mph74%29.85 "Hg10 mi
12:52 PM77 °FMore clouds than sun.9 mph79%29.85 "Hg10 mi
11:54 AM74 °FLight rain. Cloudy.10 mph88%29.86 "Hg7 mi
10:52 AM74 °FLight rain. Mostly cloudy.7 mph85%29.86 "Hg10 mi
10:04 AM73 °FLight rain. Mostly cloudy.10 mph84%29.86 "Hg7 mi
9:52 AM73 °FLight rain. Fog.9 mph88%29.85 "Hg6 mi
8:52 AM73 °FLight rain. Mostly cloudy.7 mph84%29.85 "Hg7 mi
7:52 AM73 °FLight rain. Overcast.8 mph81%29.85 "Hg10 mi
6:52 AM73 °FLight rain. Overcast.8 mph88%29.84 "Hg7 mi
5:52 AM74 °FRain. Fog.6 mph88%29.85 "Hg5 mi
4:52 AM75 °FLight rain. Overcast.5 mph85%29.85 "Hg6 mi
3:52 AM76 °FLight rain. Overcast.No wind82%29.85 "Hg7 mi
Weather by CustomWeather, © 2016

See weather overviewHow to use our weather pages